Year,Month,Day,Hour,Minute,Value (Times are PST for windspeed in km/hr)
2011,03,02,00,00,18.30
2011,03,02,00,01,17.40
2011,03,02,00,02,16.30
2011,03,02,00,03,15.90
2011,03,02,00,04,13.40
2011,03,02,00,05,14.60
2011,03,02,00,06,15.20
2011,03,02,00,07,14.90
2011,03,02,00,08,18.90
2011,03,02,00,09,13.30
2011,03,02,00,10,18.40
2011,03,02,00,11,17.30
2011,03,02,00,12,17.10
2011,03,02,00,13,17.60
2011,03,02,00,14,15.40
2011,03,02,00,15,14.60
2011,03,02,00,16,16.80
2011,03,02,00,17,15.70
2011,03,02,00,18,15.00
2011,03,02,00,19,17.00
2011,03,02,00,20,10.50
2011,03,02,00,21,15.70
2011,03,02,00,22,16.20
2011,03,02,00,23,14.50
2011,03,02,00,24,17.70
2011,03,02,00,25,14.40
2011,03,02,00,26,16.30
2011,03,02,00,27,13.60
2011,03,02,00,28,12.90
2011,03,02,00,29,13.40
2011,03,02,00,30,12.60
2011,03,02,00,31,18.50
2011,03,02,00,32,17.20
2011,03,02,00,33,12.90
2011,03,02,00,34,16.00
2011,03,02,00,35,17.40
2011,03,02,00,36,15.00
2011,03,02,00,37,18.00
2011,03,02,00,38,14.50
2011,03,02,00,39,17.30
2011,03,02,00,40,21.10
2011,03,02,00,41,18.90
2011,03,02,00,42,15.80
2011,03,02,00,43,17.00
2011,03,02,00,44,16.80
2011,03,02,00,45,20.30
2011,03,02,00,46,15.80
2011,03,02,00,47,17.90
2011,03,02,00,48,18.10
2011,03,02,00,49,16.30
2011,03,02,00,50,16.20
2011,03,02,00,51,16.30
2011,03,02,00,52,17.50
2011,03,02,00,53,14.20
2011,03,02,00,54,18.60
2011,03,02,00,55,20.80
2011,03,02,00,56,15.40
2011,03,02,00,57,13.00
2011,03,02,00,58,17.80
2011,03,02,00,59,24.50
2011,03,02,01,00,15.80
2011,03,02,01,01,12.80
2011,03,02,01,02,13.40
2011,03,02,01,03,15.00
2011,03,02,01,04,17.40
2011,03,02,01,05,15.40
2011,03,02,01,06,13.90
2011,03,02,01,07,12.80
2011,03,02,01,08,15.20
2011,03,02,01,09,13.70
2011,03,02,01,10,13.80
2011,03,02,01,11,15.20
2011,03,02,01,12,16.40
2011,03,02,01,13,17.80
2011,03,02,01,14,15.20
2011,03,02,01,15,15.30
2011,03,02,01,16,16.50
2011,03,02,01,17,16.30
2011,03,02,01,18,13.30
2011,03,02,01,19,14.60
2011,03,02,01,20,15.60
2011,03,02,01,21,13.90
2011,03,02,01,22,15.70
2011,03,02,01,23,16.50
2011,03,02,01,24,15.90
2011,03,02,01,25,18.70
2011,03,02,01,26,18.90
2011,03,02,01,27,16.20
2011,03,02,01,28,16.10
2011,03,02,01,29,17.90
2011,03,02,01,30,15.40
2011,03,02,01,31,11.90
2011,03,02,01,32,17.30
2011,03,02,01,33,15.50
2011,03,02,01,34,17.30
2011,03,02,01,35,16.30
2011,03,02,01,36,16.20
2011,03,02,01,37,12.10
2011,03,02,01,38,16.40
2011,03,02,01,39,14.00
2011,03,02,01,40,10.50
2011,03,02,01,41,13.60
2011,03,02,01,42,15.30
2011,03,02,01,43,15.00
2011,03,02,01,44,12.40
2011,03,02,01,45,11.40
2011,03,02,01,46,16.30
2011,03,02,01,47,13.80
2011,03,02,01,48,14.30
2011,03,02,01,49,12.60
2011,03,02,01,50,9.20
2011,03,02,01,51,12.80
2011,03,02,01,52,13.20
2011,03,02,01,53,13.40
2011,03,02,01,54,18.10
2011,03,02,01,55,13.60
2011,03,02,01,56,9.80
2011,03,02,01,57,13.80
2011,03,02,01,58,15.00
2011,03,02,01,59,13.70
2011,03,02,02,00,13.00
2011,03,02,02,01,12.50
2011,03,02,02,02,11.90
2011,03,02,02,03,15.10
2011,03,02,02,04,14.70
2011,03,02,02,05,15.20
2011,03,02,02,06,14.00
2011,03,02,02,07,10.50
2011,03,02,02,08,12.20
2011,03,02,02,09,15.00
2011,03,02,02,10,18.20
2011,03,02,02,11,15.50
2011,03,02,02,12,16.30
2011,03,02,02,13,15.00
2011,03,02,02,14,18.00
2011,03,02,02,15,17.10
2011,03,02,02,16,15.60
2011,03,02,02,17,17.40
2011,03,02,02,18,16.20
2011,03,02,02,19,17.90
2011,03,02,02,20,13.90
2011,03,02,02,21,14.40
2011,03,02,02,22,15.30
2011,03,02,02,23,20.60
2011,03,02,02,24,19.30
2011,03,02,02,25,18.00
2011,03,02,02,26,15.40
2011,03,02,02,27,18.40
2011,03,02,02,28,19.70
2011,03,02,02,29,17.40
2011,03,02,02,30,17.60
2011,03,02,02,31,16.00
2011,03,02,02,32,19.20
2011,03,02,02,33,22.50
2011,03,02,02,34,15.50
2011,03,02,02,35,17.20
2011,03,02,02,36,18.80
2011,03,02,02,37,18.10
2011,03,02,02,38,14.90
2011,03,02,02,39,14.70
2011,03,02,02,40,16.10
2011,03,02,02,41,16.80
2011,03,02,02,42,17.80
2011,03,02,02,43,15.80
2011,03,02,02,44,13.90
2011,03,02,02,45,16.40
2011,03,02,02,46,19.50
2011,03,02,02,47,18.50
2011,03,02,02,48,16.40
2011,03,02,02,49,17.70
2011,03,02,02,50,16.70
2011,03,02,02,51,18.20
2011,03,02,02,52,19.80
2011,03,02,02,53,20.10
2011,03,02,02,54,19.80
2011,03,02,02,55,19.70
2011,03,02,02,56,17.10
2011,03,02,02,57,17.90
2011,03,02,02,58,17.50
2011,03,02,02,59,13.80
2011,03,02,03,00,16.20
2011,03,02,03,01,13.50
2011,03,02,03,02,16.40
2011,03,02,03,03,17.20
2011,03,02,03,04,16.90
2011,03,02,03,05,18.30
2011,03,02,03,06,18.70
2011,03,02,03,07,16.30
2011,03,02,03,08,18.30
2011,03,02,03,09,16.70
2011,03,02,03,10,14.10
2011,03,02,03,11,14.30
2011,03,02,03,12,19.10
2011,03,02,03,13,17.40
2011,03,02,03,14,17.80
2011,03,02,03,15,18.00
2011,03,02,03,16,14.70
2011,03,02,03,17,23.00
2011,03,02,03,18,17.40
2011,03,02,03,19,18.00
2011,03,02,03,20,19.00
2011,03,02,03,21,21.50
2011,03,02,03,22,15.70
2011,03,02,03,23,14.20
2011,03,02,03,24,18.30
2011,03,02,03,25,14.10
2011,03,02,03,26,19.60
2011,03,02,03,27,12.20
2011,03,02,03,28,15.10
2011,03,02,03,29,17.20
2011,03,02,03,30,16.70
2011,03,02,03,31,17.10
2011,03,02,03,32,20.00
2011,03,02,03,33,19.80
2011,03,02,03,34,17.10
2011,03,02,03,35,17.80
2011,03,02,03,36,16.70
2011,03,02,03,37,17.50
2011,03,02,03,38,14.10
2011,03,02,03,39,14.20
2011,03,02,03,40,16.30
2011,03,02,03,41,18.30
2011,03,02,03,42,15.30
2011,03,02,03,43,15.40
2011,03,02,03,44,15.80
2011,03,02,03,45,14.20
2011,03,02,03,46,16.10
2011,03,02,03,47,18.30
2011,03,02,03,48,20.40
2011,03,02,03,49,14.60
2011,03,02,03,50,13.40
2011,03,02,03,51,17.50
2011,03,02,03,52,16.20
2011,03,02,03,53,19.60
2011,03,02,03,54,18.00
2011,03,02,03,55,17.70
2011,03,02,03,56,17.00
2011,03,02,03,57,17.90
2011,03,02,03,58,19.90
2011,03,02,03,59,19.30
2011,03,02,04,00,19.40
2011,03,02,04,01,20.20
2011,03,02,04,02,22.00
2011,03,02,04,03,21.00
2011,03,02,04,04,20.90
2011,03,02,04,05,18.90
2011,03,02,04,06,17.10
2011,03,02,04,07,15.60
2011,03,02,04,08,18.00
2011,03,02,04,09,17.10
2011,03,02,04,10,16.70
2011,03,02,04,11,16.80
2011,03,02,04,12,20.20
2011,03,02,04,13,18.10
2011,03,02,04,14,23.70
2011,03,02,04,15,19.20
2011,03,02,04,16,16.00
2011,03,02,04,17,16.70
2011,03,02,04,18,15.10
2011,03,02,04,19,16.30
2011,03,02,04,20,22.00
2011,03,02,04,21,18.30
2011,03,02,04,22,16.50
2011,03,02,04,23,15.50
2011,03,02,04,24,18.20
2011,03,02,04,25,16.30
2011,03,02,04,26,12.10
2011,03,02,04,27,10.70
2011,03,02,04,28,11.50
2011,03,02,04,29,15.00
2011,03,02,04,30,15.00
2011,03,02,04,31,14.60
2011,03,02,04,32,15.00
2011,03,02,04,33,10.80
2011,03,02,04,34,12.10
2011,03,02,04,35,15.40
2011,03,02,04,36,11.30
2011,03,02,04,37,12.40
2011,03,02,04,38,9.30
2011,03,02,04,39,8.10
2011,03,02,04,40,8.50
2011,03,02,04,41,9.30
2011,03,02,04,42,5.60
2011,03,02,04,43,7.60
2011,03,02,04,44,10.60
2011,03,02,04,45,9.00
2011,03,02,04,46,14.10
2011,03,02,04,47,11.70
2011,03,02,04,48,9.20
2011,03,02,04,49,16.00
2011,03,02,04,50,17.20
2011,03,02,04,51,12.60
2011,03,02,04,52,10.90
2011,03,02,04,53,9.50
2011,03,02,04,54,13.60
2011,03,02,04,55,13.20
2011,03,02,04,56,12.60
2011,03,02,04,57,11.50
2011,03,02,04,58,16.10
2011,03,02,04,59,15.50
2011,03,02,05,00,11.10
2011,03,02,05,01,7.30
2011,03,02,05,02,9.70
2011,03,02,05,03,9.40
2011,03,02,05,04,10.50
2011,03,02,05,05,9.50
2011,03,02,05,06,13.40
2011,03,02,05,07,9.90
2011,03,02,05,08,12.00
2011,03,02,05,09,10.40
2011,03,02,05,10,9.70
2011,03,02,05,11,8.40
2011,03,02,05,12,9.10
2011,03,02,05,13,7.30
2011,03,02,05,14,9.20
2011,03,02,05,15,11.50
2011,03,02,05,16,8.10
2011,03,02,05,17,9.20
2011,03,02,05,18,7.40
2011,03,02,05,19,8.50
2011,03,02,05,20,13.60
2011,03,02,05,21,6.00
2011,03,02,05,22,10.10
2011,03,02,05,23,7.00
2011,03,02,05,24,7.70
2011,03,02,05,25,4.80
2011,03,02,05,26,4.10
2011,03,02,05,27,10.10
2011,03,02,05,28,5.70
2011,03,02,05,29,8.70
2011,03,02,05,30,5.80
2011,03,02,05,31,4.70
2011,03,02,05,32,7.60
2011,03,02,05,33,9.20
2011,03,02,05,34,10.40
2011,03,02,05,35,9.70
2011,03,02,05,36,11.40
2011,03,02,05,37,16.20
2011,03,02,05,38,10.00
2011,03,02,05,39,9.40
2011,03,02,05,40,10.00
2011,03,02,05,41,15.40
2011,03,02,05,42,12.50
2011,03,02,05,43,9.60
2011,03,02,05,44,11.80
2011,03,02,05,45,8.60
2011,03,02,05,46,13.30
2011,03,02,05,47,16.80
2011,03,02,05,48,13.20
2011,03,02,05,49,15.50
2011,03,02,05,50,12.30
2011,03,02,05,51,11.40
2011,03,02,05,52,11.60
2011,03,02,05,53,13.60
2011,03,02,05,54,19.50
2011,03,02,05,55,15.60
2011,03,02,05,56,13.00
2011,03,02,05,57,9.20
2011,03,02,05,58,15.20
2011,03,02,05,59,15.20
2011,03,02,06,00,18.70
2011,03,02,06,01,18.40
2011,03,02,06,02,17.90
2011,03,02,06,03,20.00
2011,03,02,06,04,24.70
2011,03,02,06,05,18.80
2011,03,02,06,06,12.20
2011,03,02,06,07,12.40
2011,03,02,06,08,19.60
2011,03,02,06,09,28.00
2011,03,02,06,10,25.30
2011,03,02,06,11,20.50
2011,03,02,06,12,23.50
2011,03,02,06,13,18.10
2011,03,02,06,14,15.90
2011,03,02,06,15,18.70
2011,03,02,06,16,13.60
2011,03,02,06,17,18.90
2011,03,02,06,18,20.20
2011,03,02,06,19,13.70
2011,03,02,06,20,15.60
2011,03,02,06,21,12.80
2011,03,02,06,22,24.60
2011,03,02,06,23,23.40
2011,03,02,06,24,16.70
2011,03,02,06,25,15.70
2011,03,02,06,26,8.80
2011,03,02,06,27,14.30
2011,03,02,06,28,15.30
2011,03,02,06,29,11.40
2011,03,02,06,30,15.20
2011,03,02,06,31,14.00
2011,03,02,06,32,10.40
2011,03,02,06,33,15.40
2011,03,02,06,34,21.80
2011,03,02,06,35,16.70
2011,03,02,06,36,11.80
2011,03,02,06,37,12.60
2011,03,02,06,38,13.70
2011,03,02,06,39,17.00
2011,03,02,06,40,19.00
2011,03,02,06,41,19.70
2011,03,02,06,42,11.10
2011,03,02,06,43,8.90
2011,03,02,06,44,14.60
2011,03,02,06,45,11.80
2011,03,02,06,46,11.00
2011,03,02,06,47,7.20
2011,03,02,06,48,15.40
2011,03,02,06,49,19.40
2011,03,02,06,50,15.50
2011,03,02,06,51,15.70
2011,03,02,06,52,17.20
2011,03,02,06,53,15.70
2011,03,02,06,54,13.60
2011,03,02,06,55,16.50
2011,03,02,06,56,19.00
2011,03,02,06,57,18.10
2011,03,02,06,58,18.80
2011,03,02,06,59,17.00
2011,03,02,07,00,25.80
2011,03,02,07,01,21.70
2011,03,02,07,02,16.70
2011,03,02,07,03,12.60
2011,03,02,07,04,21.30
2011,03,02,07,05,19.60
2011,03,02,07,06,16.10
2011,03,02,07,07,19.50
2011,03,02,07,08,14.80
2011,03,02,07,09,13.80
2011,03,02,07,10,15.40
2011,03,02,07,11,12.50
2011,03,02,07,12,21.50
2011,03,02,07,13,23.10
2011,03,02,07,14,15.80
2011,03,02,07,15,13.60
2011,03,02,07,16,17.50
2011,03,02,07,17,15.40
2011,03,02,07,18,14.40
2011,03,02,07,19,12.10
2011,03,02,07,20,16.00
2011,03,02,07,21,14.90
2011,03,02,07,22,11.90
2011,03,02,07,23,11.50
2011,03,02,07,24,16.80
2011,03,02,07,25,22.40
2011,03,02,07,26,16.90
2011,03,02,07,27,16.70
2011,03,02,07,28,18.70
2011,03,02,07,29,13.00
2011,03,02,07,30,15.00
2011,03,02,07,31,15.90
2011,03,02,07,32,18.30
2011,03,02,07,33,21.60
2011,03,02,07,34,22.70
2011,03,02,07,35,19.90
2011,03,02,07,36,24.20
2011,03,02,07,37,19.60
2011,03,02,07,38,19.20
2011,03,02,07,39,13.80
2011,03,02,07,40,10.60
2011,03,02,07,41,12.90
2011,03,02,07,42,16.90
2011,03,02,07,43,20.70
2011,03,02,07,44,14.10
2011,03,02,07,45,12.70
2011,03,02,07,46,9.50
2011,03,02,07,47,11.60
2011,03,02,07,48,16.80
2011,03,02,07,49,9.30
2011,03,02,07,50,13.00
2011,03,02,07,51,16.30
2011,03,02,07,52,11.90
2011,03,02,07,53,10.40
2011,03,02,07,54,6.00
2011,03,02,07,55,15.20
2011,03,02,07,56,18.80
2011,03,02,07,57,9.20
2011,03,02,07,58,9.40
2011,03,02,07,59,11.00
2011,03,02,08,00,11.60
2011,03,02,08,01,13.00
2011,03,02,08,02,9.70
2011,03,02,08,03,9.60
2011,03,02,08,04,9.40
2011,03,02,08,05,16.90
2011,03,02,08,06,15.90
2011,03,02,08,07,16.30
2011,03,02,08,08,13.40
2011,03,02,08,09,19.70
2011,03,02,08,10,16.60
2011,03,02,08,11,10.60
2011,03,02,08,12,14.30
2011,03,02,08,13,10.10
2011,03,02,08,14,8.40
2011,03,02,08,15,14.80
2011,03,02,08,16,14.70
2011,03,02,08,17,11.60
2011,03,02,08,18,20.60
2011,03,02,08,19,18.30
2011,03,02,08,20,15.00
2011,03,02,08,21,11.50
2011,03,02,08,22,16.90
2011,03,02,08,23,13.80
2011,03,02,08,24,13.40
2011,03,02,08,25,16.30
2011,03,02,08,26,16.10
2011,03,02,08,27,18.90
2011,03,02,08,28,17.50
2011,03,02,08,29,17.80
2011,03,02,08,30,16.30
2011,03,02,08,31,19.90
2011,03,02,08,32,16.20
2011,03,02,08,33,11.60
2011,03,02,08,34,12.50
2011,03,02,08,35,10.50
2011,03,02,08,36,15.00
2011,03,02,08,37,14.10
2011,03,02,08,38,17.30
2011,03,02,08,39,13.60
2011,03,02,08,40,18.50
2011,03,02,08,41,13.00
2011,03,02,08,42,10.30
2011,03,02,08,43,10.20
2011,03,02,08,44,17.10
2011,03,02,08,45,13.30
2011,03,02,08,46,20.90
2011,03,02,08,47,12.40
2011,03,02,08,48,10.10
2011,03,02,08,49,10.50
2011,03,02,08,50,13.50
2011,03,02,08,51,15.00
2011,03,02,08,52,16.60
2011,03,02,08,53,17.60
2011,03,02,08,54,24.10
2011,03,02,08,55,23.90
2011,03,02,08,56,22.40
2011,03,02,08,57,30.30
2011,03,02,08,58,27.40
2011,03,02,08,59,23.20
2011,03,02,09,00,23.60
2011,03,02,09,01,16.00
2011,03,02,09,02,20.00
2011,03,02,09,03,21.80
2011,03,02,09,04,22.00
2011,03,02,09,05,15.70
2011,03,02,09,06,25.10
2011,03,02,09,07,20.00
2011,03,02,09,08,22.70
2011,03,02,09,09,20.20
2011,03,02,09,10,21.70
2011,03,02,09,11,20.00
2011,03,02,09,12,23.00
2011,03,02,09,13,19.40
2011,03,02,09,14,14.30
2011,03,02,09,15,14.10
2011,03,02,09,16,17.10
2011,03,02,09,17,11.50
2011,03,02,09,18,21.10
2011,03,02,09,19,14.20
2011,03,02,09,20,14.10
2011,03,02,09,21,10.10
2011,03,02,09,22,12.40
2011,03,02,09,23,14.20
2011,03,02,09,24,13.50
2011,03,02,09,25,25.30
2011,03,02,09,26,16.00
2011,03,02,09,27,10.30
2011,03,02,09,28,14.90
2011,03,02,09,29,17.20
2011,03,02,09,30,18.30
2011,03,02,09,31,15.30
2011,03,02,09,32,11.90
2011,03,02,09,33,19.80
2011,03,02,09,34,23.70
2011,03,02,09,35,16.20
2011,03,02,09,36,17.20
2011,03,02,09,37,14.20
2011,03,02,09,38,13.00
2011,03,02,09,39,23.70
2011,03,02,09,40,24.70
2011,03,02,09,41,25.90
2011,03,02,09,42,23.40
2011,03,02,09,43,13.80
2011,03,02,09,44,15.30
2011,03,02,09,45,17.30
2011,03,02,09,46,20.80
2011,03,02,09,47,19.70
2011,03,02,09,48,18.30
2011,03,02,09,49,18.30
2011,03,02,09,50,20.00
2011,03,02,09,51,16.40
2011,03,02,09,52,9.10
2011,03,02,09,53,12.50
2011,03,02,09,54,16.00
2011,03,02,09,55,23.00
2011,03,02,09,56,19.90
2011,03,02,09,57,17.20
2011,03,02,09,58,16.10
2011,03,02,09,59,18.30
2011,03,02,10,00,14.90
2011,03,02,10,01,16.30
2011,03,02,10,02,15.50
2011,03,02,10,03,19.10
2011,03,02,10,04,10.30
2011,03,02,10,05,10.20
2011,03,02,10,06,11.70
2011,03,02,10,07,15.20
2011,03,02,10,08,13.80
2011,03,02,10,09,20.00
2011,03,02,10,10,16.20
2011,03,02,10,11,16.40
2011,03,02,10,12,20.40
2011,03,02,10,13,17.50
2011,03,02,10,14,19.40
2011,03,02,10,15,13.00
2011,03,02,10,16,16.10
2011,03,02,10,17,16.80
2011,03,02,10,18,16.20
2011,03,02,10,19,21.70
2011,03,02,10,20,22.00
2011,03,02,10,21,16.50
2011,03,02,10,22,17.20
2011,03,02,10,23,14.10
2011,03,02,10,24,15.60
2011,03,02,10,25,19.50
2011,03,02,10,26,17.50
2011,03,02,10,27,13.90
2011,03,02,10,28,18.30
2011,03,02,10,29,18.60
2011,03,02,10,30,16.50
2011,03,02,10,31,22.30
2011,03,02,10,32,18.90
2011,03,02,10,33,13.80
2011,03,02,10,34,9.10
2011,03,02,10,35,29.00
2011,03,02,10,36,26.60
2011,03,02,10,37,23.20
2011,03,02,10,38,28.30
2011,03,02,10,39,20.60
2011,03,02,10,40,14.30
2011,03,02,10,41,9.70
2011,03,02,10,42,5.70
2011,03,02,10,43,7.50
2011,03,02,10,44,12.40
2011,03,02,10,45,9.80
2011,03,02,10,46,10.70
2011,03,02,10,47,14.50
2011,03,02,10,48,10.30
2011,03,02,10,49,9.90
2011,03,02,10,50,8.40
2011,03,02,10,51,3.80
2011,03,02,10,52,9.60
2011,03,02,10,53,15.90
2011,03,02,10,54,13.90
2011,03,02,10,55,13.30
2011,03,02,10,56,11.90
2011,03,02,10,57,17.20
2011,03,02,10,58,12.20
2011,03,02,10,59,10.80
2011,03,02,11,00,20.00
2011,03,02,11,01,13.50
2011,03,02,11,02,13.80
2011,03,02,11,03,17.20
2011,03,02,11,04,13.90
2011,03,02,11,05,13.90
2011,03,02,11,06,16.60
2011,03,02,11,07,12.10
2011,03,02,11,08,17.30
2011,03,02,11,09,15.20
2011,03,02,11,10,10.40
2011,03,02,11,11,13.70
2011,03,02,11,12,12.90
2011,03,02,11,13,12.50
2011,03,02,11,14,16.40
2011,03,02,11,15,10.50
2011,03,02,11,16,16.90
2011,03,02,11,17,13.60
2011,03,02,11,18,15.70
2011,03,02,11,19,16.20
2011,03,02,11,20,12.10
2011,03,02,11,21,21.80
2011,03,02,11,22,19.70
2011,03,02,11,23,15.90
2011,03,02,11,24,14.80
2011,03,02,11,25,10.90
2011,03,02,11,26,14.40
2011,03,02,11,27,15.60
2011,03,02,11,28,12.00
2011,03,02,11,29,14.50
2011,03,02,11,30,18.30
2011,03,02,11,31,15.00
2011,03,02,11,32,14.90
2011,03,02,11,33,13.40
2011,03,02,11,34,16.30
2011,03,02,11,35,26.30
2011,03,02,11,36,14.00
2011,03,02,11,37,23.80
2011,03,02,11,38,29.80
2011,03,02,11,39,19.50
2011,03,02,11,40,21.50
2011,03,02,11,41,25.70
2011,03,02,11,42,19.70
2011,03,02,11,43,27.80
2011,03,02,11,44,37.20
2011,03,02,11,45,49.30
2011,03,02,11,46,38.10
2011,03,02,11,47,35.10
2011,03,02,11,48,33.30
2011,03,02,11,49,19.10
2011,03,02,11,50,19.50
2011,03,02,11,51,23.10
2011,03,02,11,52,34.20
2011,03,02,11,53,27.20
2011,03,02,11,54,26.00
2011,03,02,11,55,24.90
2011,03,02,11,56,17.70
2011,03,02,11,57,14.40
2011,03,02,11,58,22.90
2011,03,02,11,59,22.70
2011,03,02,12,00,14.50
2011,03,02,12,01,9.00
2011,03,02,12,02,9.50
2011,03,02,12,03,9.70
2011,03,02,12,04,10.30
2011,03,02,12,05,8.10
2011,03,02,12,06,12.10
2011,03,02,12,07,10.30
2011,03,02,12,08,9.10
2011,03,02,12,09,14.20
2011,03,02,12,10,18.70
2011,03,02,12,11,21.50
2011,03,02,12,12,21.60
2011,03,02,12,13,14.20
2011,03,02,12,14,18.20
2011,03,02,12,15,20.10
2011,03,02,12,16,14.10
2011,03,02,12,17,17.20
2011,03,02,12,18,13.60
2011,03,02,12,19,15.60
2011,03,02,12,20,15.90
2011,03,02,12,21,16.70
2011,03,02,12,22,26.40
2011,03,02,12,23,23.50
2011,03,02,12,24,37.70
2011,03,02,12,25,25.00
2011,03,02,12,26,32.80
2011,03,02,12,27,26.20
2011,03,02,12,28,21.60
2011,03,02,12,29,24.90
2011,03,02,12,30,22.80
2011,03,02,12,31,19.30
2011,03,02,12,32,19.80
2011,03,02,12,33,11.20
2011,03,02,12,34,6.80
2011,03,02,12,35,12.20
2011,03,02,12,36,13.80
2011,03,02,12,37,22.80
2011,03,02,12,38,16.60
2011,03,02,12,39,14.60
2011,03,02,12,40,16.10
2011,03,02,12,41,9.80
2011,03,02,12,42,9.30
2011,03,02,12,43,10.30
2011,03,02,12,44,6.70
2011,03,02,12,45,8.00
2011,03,02,12,46,4.90
2011,03,02,12,47,6.60
2011,03,02,12,48,7.80
2011,03,02,12,49,5.90
2011,03,02,12,50,4.80
2011,03,02,12,51,5.50
2011,03,02,12,52,9.60
2011,03,02,12,53,9.70
2011,03,02,12,54,16.50
2011,03,02,12,55,17.70
2011,03,02,12,56,19.30
2011,03,02,12,57,17.70
2011,03,02,12,58,14.20
2011,03,02,12,59,12.60
2011,03,02,13,00,12.30
2011,03,02,13,01,17.40
2011,03,02,13,02,15.40
2011,03,02,13,03,7.20
2011,03,02,13,04,3.50
2011,03,02,13,05,1.90
2011,03,02,13,06,3.00
2011,03,02,13,07,7.30
2011,03,02,13,08,7.50
2011,03,02,13,09,7.80
2011,03,02,13,10,8.00
2011,03,02,13,11,10.60
2011,03,02,13,12,8.50
2011,03,02,13,13,9.20
2011,03,02,13,14,13.40
2011,03,02,13,15,11.50
2011,03,02,13,16,13.30
2011,03,02,13,17,8.00
2011,03,02,13,18,8.80
2011,03,02,13,19,17.40
2011,03,02,13,20,11.30
2011,03,02,13,21,6.40
2011,03,02,13,22,8.00
2011,03,02,13,23,6.30
2011,03,02,13,24,9.50
2011,03,02,13,25,9.70
2011,03,02,13,26,9.30
2011,03,02,13,27,13.60
2011,03,02,13,28,17.50
2011,03,02,13,29,12.20
2011,03,02,13,30,7.20
2011,03,02,13,31,14.30
2011,03,02,13,32,13.60
2011,03,02,13,33,19.50
2011,03,02,13,34,11.80
2011,03,02,13,35,17.00
2011,03,02,13,36,12.80
2011,03,02,13,37,14.70
2011,03,02,13,38,16.30
2011,03,02,13,39,7.80
2011,03,02,13,40,2.10
2011,03,02,13,41,1.20
2011,03,02,13,42,5.80
2011,03,02,13,43,5.90
2011,03,02,13,44,5.70
2011,03,02,13,45,6.70
2011,03,02,13,46,7.30
2011,03,02,13,47,4.30
2011,03,02,13,48,6.60
2011,03,02,13,49,8.40
2011,03,02,13,50,8.90
2011,03,02,13,51,7.60
2011,03,02,13,52,7.80
2011,03,02,13,53,6.90
2011,03,02,13,54,9.70
2011,03,02,13,55,7.70
2011,03,02,13,56,7.00
2011,03,02,13,57,8.50
2011,03,02,13,58,6.10
2011,03,02,13,59,8.60
2011,03,02,14,00,11.40
2011,03,02,14,01,7.60
2011,03,02,14,02,7.30
2011,03,02,14,03,6.40
2011,03,02,14,04,5.30
2011,03,02,14,05,10.00
2011,03,02,14,06,7.10
2011,03,02,14,07,8.10
2011,03,02,14,08,8.40
2011,03,02,14,09,5.00
2011,03,02,14,10,7.60
2011,03,02,14,11,9.70
2011,03,02,14,12,9.90
2011,03,02,14,13,9.70
2011,03,02,14,14,22.50
2011,03,02,14,15,25.10
2011,03,02,14,16,18.40
2011,03,02,14,17,8.10
2011,03,02,14,18,10.50
2011,03,02,14,19,13.00
2011,03,02,14,20,10.90
2011,03,02,14,21,8.90
2011,03,02,14,22,7.30
2011,03,02,14,23,6.40
2011,03,02,14,24,7.10
2011,03,02,14,25,9.70
2011,03,02,14,26,10.70
2011,03,02,14,27,4.80
2011,03,02,14,28,5.00
2011,03,02,14,29,5.60
2011,03,02,14,30,6.60
2011,03,02,14,31,8.50
2011,03,02,14,32,8.20
2011,03,02,14,33,7.40
2011,03,02,14,34,6.40
2011,03,02,14,35,4.90
2011,03,02,14,36,2.80
2011,03,02,14,37,2.90
2011,03,02,14,38,1.40
2011,03,02,14,39,4.20
2011,03,02,14,40,4.90
2011,03,02,14,41,3.60
2011,03,02,14,42,2.70
2011,03,02,14,43,0.60
2011,03,02,14,44,3.30
2011,03,02,14,45,1.90
2011,03,02,14,46,4.50
2011,03,02,14,47,4.80
2011,03,02,14,48,4.20
2011,03,02,14,49,3.10
2011,03,02,14,50,3.70
2011,03,02,14,51,1.50
2011,03,02,14,52,0.10
2011,03,02,14,53,0.00
2011,03,02,14,54,0.00
2011,03,02,14,55,0.60
2011,03,02,14,56,1.10
2011,03,02,14,57,1.90
2011,03,02,14,58,1.80
2011,03,02,14,59,2.50
2011,03,02,15,00,2.50
2011,03,02,15,01,3.70
2011,03,02,15,02,3.90
2011,03,02,15,03,6.10
2011,03,02,15,04,5.60
2011,03,02,15,05,9.70
2011,03,02,15,06,6.40
2011,03,02,15,07,6.30
2011,03,02,15,08,5.80
2011,03,02,15,09,10.00
2011,03,02,15,10,12.00
2011,03,02,15,11,7.50
2011,03,02,15,12,6.20
2011,03,02,15,13,7.70
2011,03,02,15,14,5.60
2011,03,02,15,15,7.20
2011,03,02,15,16,10.50
2011,03,02,15,17,8.90
2011,03,02,15,18,14.20
2011,03,02,15,19,8.60
2011,03,02,15,20,6.40
2011,03,02,15,21,6.90
2011,03,02,15,22,7.90
2011,03,02,15,23,6.80
2011,03,02,15,24,7.30
2011,03,02,15,25,10.50
2011,03,02,15,26,7.80
2011,03,02,15,27,8.60
2011,03,02,15,28,8.10
2011,03,02,15,29,10.20
2011,03,02,15,30,7.40
2011,03,02,15,31,9.20
2011,03,02,15,32,9.70
2011,03,02,15,33,7.00
2011,03,02,15,34,6.40
2011,03,02,15,35,5.20
2011,03,02,15,36,5.90
2011,03,02,15,37,7.20
2011,03,02,15,38,8.70
2011,03,02,15,39,8.20
2011,03,02,15,40,4.90
2011,03,02,15,41,4.90
2011,03,02,15,42,6.40
2011,03,02,15,43,2.40
2011,03,02,15,44,3.50
2011,03,02,15,45,0.40
2011,03,02,15,46,0.00
2011,03,02,15,47,0.10
2011,03,02,15,48,0.00
2011,03,02,15,49,0.60
2011,03,02,15,50,1.00
2011,03,02,15,51,0.00
2011,03,02,15,52,0.10
2011,03,02,15,53,0.00
2011,03,02,15,54,0.00
2011,03,02,15,55,0.00
2011,03,02,15,56,0.00
2011,03,02,15,57,1.30
2011,03,02,15,58,4.60
2011,03,02,15,59,1.20
2011,03,02,16,00,1.60
2011,03,02,16,01,1.70
2011,03,02,16,02,1.80
2011,03,02,16,03,4.50
2011,03,02,16,04,5.20
2011,03,02,16,05,2.80
2011,03,02,16,06,0.80
2011,03,02,16,07,1.10
2011,03,02,16,08,4.70
2011,03,02,16,09,4.20
2011,03,02,16,10,2.90
2011,03,02,16,11,3.70
2011,03,02,16,12,2.00
2011,03,02,16,13,0.80
2011,03,02,16,14,1.80
2011,03,02,16,15,0.90
2011,03,02,16,16,2.70
2011,03,02,16,17,3.50
2011,03,02,16,18,3.40
2011,03,02,16,19,3.00
2011,03,02,16,20,1.90
2011,03,02,16,21,0.00
2011,03,02,16,22,0.30
2011,03,02,16,23,0.20
2011,03,02,16,24,1.20
2011,03,02,16,25,2.30
2011,03,02,16,26,1.80
2011,03,02,16,27,0.00
2011,03,02,16,28,0.00
2011,03,02,16,29,1.70
2011,03,02,16,30,1.80
2011,03,02,16,31,0.00
2011,03,02,16,32,0.00
2011,03,02,16,33,0.10
2011,03,02,16,34,1.80
2011,03,02,16,35,5.90
2011,03,02,16,36,4.70
2011,03,02,16,37,3.80
2011,03,02,16,38,5.00
2011,03,02,16,39,2.70
2011,03,02,16,40,1.10
2011,03,02,16,41,0.00
2011,03,02,16,42,0.10
2011,03,02,16,43,0.00
2011,03,02,16,44,0.00
2011,03,02,16,45,0.20
2011,03,02,16,46,2.40
2011,03,02,16,47,1.30
2011,03,02,16,48,3.90
2011,03,02,16,49,2.90
2011,03,02,16,50,2.50
2011,03,02,16,51,3.50
2011,03,02,16,52,3.60
2011,03,02,16,53,0.20
2011,03,02,16,54,0.00
2011,03,02,16,55,2.70
2011,03,02,16,56,2.00
2011,03,02,16,57,0.00
2011,03,02,16,58,0.10
2011,03,02,16,59,0.00
2011,03,02,17,00,0.00
2011,03,02,17,01,0.10
2011,03,02,17,02,0.00
2011,03,02,17,03,0.00
2011,03,02,17,04,1.70
2011,03,02,17,05,0.70
2011,03,02,17,06,1.00
2011,03,02,17,07,1.20
2011,03,02,17,08,4.20
2011,03,02,17,09,2.30
2011,03,02,17,10,0.20
2011,03,02,17,11,0.10
2011,03,02,17,12,2.80
2011,03,02,17,13,1.60
2011,03,02,17,14,0.60
2011,03,02,17,15,3.10
2011,03,02,17,16,1.80
2011,03,02,17,17,0.40
2011,03,02,17,18,1.10
2011,03,02,17,19,4.50
2011,03,02,17,20,6.60
2011,03,02,17,21,6.80
2011,03,02,17,22,7.70
2011,03,02,17,23,10.80
2011,03,02,17,24,12.40
2011,03,02,17,25,8.20
2011,03,02,17,26,7.00
2011,03,02,17,27,6.80
2011,03,02,17,28,7.00
2011,03,02,17,29,5.00
2011,03,02,17,30,6.90
2011,03,02,17,31,6.00
2011,03,02,17,32,12.00
2011,03,02,17,33,6.90